ONEWEB-0342 (49208 NORAD) Tracking and Keplerian Element Data

This shows tracking and keplerian element data for the satellite.

Feedback or suggestion? Click here.




ElementValue
Catalog49208
NameONEWEB-0342
Epoch Orbit780
Epoch Day300.83334491
Epoch Year2021
RAAN312.9572
Inclination87.201
Eccentricity0.0023295
Argument of Perigee134.6968
Mean Anonmoly210.9909
Mean Motion14.89632391
Decay Rate0.0002853
L11 49208U 21083Y 21300.83334491 .00028530 00000-0 29606-2 0 9991
L22 49208 87.2010 312.9572 0023295 134.6968 210.9909 14.89632391 7801

Live tracking and technical data element details for ONEWEB-0342 (NORAD 49208). ONEWEB-0342 can be tracked NOW for your location showing map with azimuth and elevation plus other details from your city location.

Track the satellite on the map from your city or location and see movement details for azimuth, elevation, latitude, longitude, range, height, and movement on the map or in text.







IsCatalogInMostPopularTable: catalog: 49208, numindb: 10
Update: records affected: 1



GetName: 49208 ONEWEB-0342

Hit Count: updated at: Thu, 28 Oct 2021 10:43:30 GMT